Location: Unspecified
(0.0000°N, 0.0000°E)
Time: 06:33:46
(UTC+00:00)

Courier 1B - Pass Details

Date: 25 September 2023
Orbit: 962 x 1208 km, 28.3° (Epoch: 06 December)

Event Time Altitude Azimuth Distance (km) Brightness Sun altitude
Rises 21:16:27 0° 303° (WNW) 3,920 11.1 -51.2°
Enters shadow 21:19:00 - 304° (NW) 3,022 10.4 -51.8°
Reaches altitude 10° 21:19:17 10° 304° (NW) 2,925 - -51.9°
Maximum altitude 21:26:26 78° 30° (NNE) 1,059 - -53.7°
Drops below altitude 10° 21:33:08 10° 116° (ESE) 2,759 - -55.4°
Sets 21:35:45 0° 117° (ESE) 3,684 - -56.0°
